| time (UTC) | temp F | wind direction | speed MPH | gust MPH | rain 1hr in | rain 24hr in | rain mn in | humidity % | barometer mb |
| 20260505001544 | 75 | 200 | 6.0 | 10.0 | 0.00 | 0.00 | 0.00 | 48 | 1011.5 |
| 20260505000042 | 76 | 195 | 5.0 | 9.0 | 0.00 | 0.00 | 0.00 | 48 | 1011.5 |
| 20260504234540 | 76 | 207 | 8.0 | 15.0 | 0.00 | 0.00 | 0.00 | 46 | 1011.4 |
| 20260504233038 | 76 | 219 | 8.0 | 13.0 | 0.00 | 0.00 | 0.00 | 46 | 1011.5 |
| 20260504231545 | 77 | 178 | 10.0 | 15.0 | 0.00 | 0.00 | 0.00 | 44 | 1011.5 |
| 20260504230038 | 77 | 199 | 10.0 | 18.0 | 0.00 | 0.00 | 0.00 | 45 | 1011.6 |
| 20260504224544 | 78 | 210 | 10.0 | 21.0 | 0.00 | 0.00 | 0.00 | 45 | 1011.6 |
| 20260504223039 | 78 | 204 | 9.0 | 19.0 | 0.00 | 0.00 | 0.00 | 43 | 1011.5 |
| 20260504221554 | 78 | 203 | 10.0 | 20.0 | 0.00 | 0.00 | 0.00 | 45 | 1011.5 |
| 20260504220037 | 79 | 198 | 11.0 | 18.0 | 0.00 | 0.00 | 0.00 | 43 | 1011.5 |
| 20260504214543 | 79 | 196 | 10.0 | 17.0 | 0.00 | 0.00 | 0.00 | 42 | 1011.4 |
| 20260504213043 | 79 | 213 | 14.0 | 22.0 | 0.00 | 0.00 | 0.00 | 44 | 1011.5 |
| 20260504211538 | 79 | 205 | 8.0 | 19.0 | 0.00 | 0.00 | 0.00 | 46 | 1011.4 |
| 20260504210046 | 79 | 177 | 13.0 | 23.0 | 0.00 | 0.00 | 0.00 | 45 | 1011.7 |
| 20260504204537 | 79 | 214 | 10.0 | 17.0 | 0.00 | 0.00 | 0.00 | 45 | 1012.0 |
| 20260504203044 | 79 | 214 | 12.0 | 19.0 | 0.00 | 0.00 | 0.00 | 46 | 1012.1 |
| 20260504201539 | 79 | 217 | 10.0 | 18.0 | 0.00 | 0.00 | 0.00 | 46 | 1012.4 |
| 20260504200038 | 79 | 192 | 11.0 | 20.0 | 0.00 | 0.00 | 0.00 | 46 | 1012.8 |
| 20260504194542 | 79 | 206 | 10.0 | 17.0 | 0.00 | 0.00 | 0.00 | 46 | 1013.0 |
| 20260504193044 | 78 | 188 | 13.0 | 21.0 | 0.00 | 0.00 | 0.00 | 46 | 1013.2 |
| 20260504191607 | 79 | 200 | 10.0 | 17.0 | 0.00 | 0.00 | 0.00 | 46 | 1013.4 |
| 20260504190040 | 78 | 217 | 11.0 | 21.0 | 0.00 | 0.00 | 0.00 | 47 | 1013.5 |
| 20260504184549 | 78 | 229 | 12.0 | 20.0 | 0.00 | 0.00 | 0.00 | 46 | 1013.7 |
| 20260504183038 | 78 | 207 | 9.0 | 23.0 | 0.00 | 0.00 | 0.00 | 48 | 1013.7 |
| 20260504181544 | 77 | 221 | 12.0 | 18.0 | 0.00 | 0.00 | 0.00 | 47 | 1013.9 |
| 20260504180043 | 77 | 190 | 12.0 | 20.0 | 0.00 | 0.00 | 0.00 | 47 | 1014.0 |
| 20260504174538 | 77 | 235 | 10.0 | 17.0 | 0.00 | 0.00 | 0.00 | 48 | 1014.2 |
| 20260504173038 | 77 | 209 | 8.0 | 16.0 | 0.00 | 0.00 | 0.00 | 51 | 1014.5 |
| 20260504171541 | 76 | 193 | 6.0 | 16.0 | 0.00 | 0.00 | 0.00 | 53 | 1014.7 |
| 20260504081542 | 58 | 203 | 5.0 | 10.0 | 0.00 | 0.00 | 0.00 | 69 | 1015.5 |
| 20260504044543 | 57 | 194 | 2.0 | 5.0 | 0.00 | 0.00 | 0.00 | 66 | 1016.9 |
| 20260504043044 | 57 | 195 | 2.0 | 3.0 | 0.00 | 0.00 | 0.00 | 66 | 1017.0 |
| 20260504041541 | 58 | 203 | 1.0 | 4.0 | 0.00 | 0.00 | 0.00 | 65 | 1017.0 |
| 20260504040041 | 58 | 193 | 2.0 | 4.0 | 0.00 | 0.00 | 0.00 | 64 | 1017.2 |
| 20260504034543 | 58 | 198 | 2.0 | 4.0 | 0.00 | 0.00 | 0.00 | 65 | 1017.3 |
| 20260504033055 | 58 | 201 | 2.0 | 3.0 | 0.00 | 0.00 | 0.00 | 65 | 1017.5 |
| 20260504031559 | 57 | 206 | 2.0 | 2.0 | 0.00 | 0.00 | 0.00 | 66 | 1017.7 |
| 20260504030059 | 57 | 179 | 0.0 | 1.0 | 0.00 | 0.00 | 0.00 | 67 | 1017.7 |
| 20260504024544 | 57 | 200 | 1.0 | 2.0 | 0.00 | 0.00 | 0.00 | 68 | 1017.5 |
| 20260504023038 | 56 | 212 | 0.0 | 0.0 | 0.00 | 0.00 | 0.00 | 68 | 1017.4 |
| 20260504021545 | 56 | 0 | 0.0 | 0.0 | 0.00 | 0.00 | 0.00 | 68 | 1017.3 |
| 20260504020046 | 56 | 0 | 0.0 | 0.0 | 0.00 | 0.00 | 0.00 | 68 | 1017.2 |
| 20260504014543 | 57 | 0 | 0.0 | 0.0 | 0.00 | 0.00 | 0.00 | 67 | 1017.1 |
| 20260504013041 | 58 | 0 | 0.0 | 0.0 | 0.00 | 0.00 | 0.00 | 64 | 1017.0 |
| 20260504011538 | 60 | 0 | 0.0 | 0.0 | 0.00 | 0.00 | 0.00 | 60 | 1017.1 |
| 20260504010040 | 63 | 0 | 0.0 | 0.0 | 0.00 | 0.00 | 0.00 | 57 | 1017.0 |
| 20260504004540 | 65 | 0 | 0.0 | 1.0 | 0.00 | 0.00 | 0.00 | 52 | 1017.0 |
| 20260504003046 | 68 | 200 | 0.0 | 3.0 | 0.00 | 0.00 | 0.00 | 48 | 1016.8 |